Regional Weather Roundup
Issued by NWS Charleston, SC

Current Version | Previous Version | Graphics & Text | Print | Product List | Glossary On
Versions: 1 2 3 4 5 6 7 8 9 10 11 12 13 14 15 16 17 18 19 20 21 22 23 24 25 26 27 28 29 30 31 32 33 34 35 36 37 38 39 40 41 42 43 44 45 46 47 48 49 50
000
ASUS42 KCHS 200727
RWRCHS

Regional Weather Roundup
National Weather Service Charleston SC
200 AM EST TUE FEB 20 2018

NOTE: "fair" indicates few or no clouds below 12,000 feet with no
significant weather and/or obstructions to visibility.

Not all stations are quality controlled. Use data with caution,
especially dewpoint observations.

SCZ027-030-031-034>040-042>050-200800-
...Southeast South Carolina...

CITY           SKY/WX    TMP DP  RH WIND       PRES   REMARKS
N Charleston   FOG       62  61  96 NE3       30.39S VSB 1/8
Waterfront Prk NOT AVBL
Mount Pleasant CLOUDY    59  59 100 CALM      30.40S FOG
Johns Island   FOG       61  61 100 CALM      30.39S VSB<1/4
Pinopolis      NOT AVBL
Moncks Corner  FOG       61  61 100 CALM      30.40S VSB 3/4
Summerville    FOG       61  61 100 CALM      30.40S VSB 1/4
Beaufort MCAS  FOG       60  60 100 NE3       30.37S VSB 1/4
Beaufort Arpt    N/A     61  61 100 CALM      30.37S FOG
Hilton Head Is FAIR      64  64 100 CALM      30.38S
Walterboro     FOG       61  61 100 CALM      30.39F VSB 1/4
Allendale      FOG       64  64 100 CALM      30.37S VSB 1

...Southern Midlands and Pee Dee...

CITY           SKY/WX    TMP DP  RH WIND       PRES   REMARKS
Georgetown     FOG       57  55  94 CALM      30.42S VSB 1/2
Kingstree      FOG       61  61 100 CALM      30.40F VSB 1/4
Orangeburg     FOG       60  59  96 E3        30.39S VSB 1/4
Barnwell       DRZL/FOG  64  64 100 CALM      30.38S VSB 1/4
Aiken          FOG       61  61 100 E3        30.42R VSB 1/2
Manning        HAZE      61  50  67 MISG      30.40F VSB 1/2
Columbia       CLOUDY    62  61  96 CALM      30.39S
Sumter         FOG       61  61  99 E5        30.38F VSB 1/4
Florence       FOG       58  58 100 CALM      30.42S VSB 1/4
Myrtle Beach   FOG       59  59 100 CALM      30.42F VSB 1/2
N Myrtle Beach FOG       61  61 100 CALM      30.41S VSB 1/4

$$

GAZ063-065-086>088-099>101-113>116-118-119-134>141-150-200800-
...Southeast Georgia...

CITY           SKY/WX    TMP DP  RH WIND       PRES   REMARKS
Savannah Arpt  FOG       61  61 100 CALM      30.37S VSB 1/4
Hunter AAF     CLEAR     61  59  94 CALM      30.34S FOG
Fort Stewart   FAIR      57  57 100 CALM      30.34S FOG
Statesboro     FOG       62  32  32 CALM      30.37S VSB<1/4
Sylvania       FOG       64  64 100 CALM      30.37S VSB 1/2
Claxton        FOG       61  61  99 CALM      30.36S VSB 1/4

...CSRA, Central and far Southeast Georgia...

CITY           SKY/WX    TMP DP  RH WIND       PRES   REMARKS
Thomson        MOCLDY    59  58  96 SE3       30.42S FOG
Augusta-Bush   FOG       55  54  96 CALM      30.36S VSB 1/4
Augusta-Daniel FAIR      64  62  93 E5        30.37S
Swainsboro     FAIR      64  63  94 SE6       30.37S
Vidalia          N/A     63  61  94 E3        30.35S FOG
Eastman        FAIR      64  57  76 CALM      30.37S
Hazlehurst     FAIR      65  65 100 SE3       30.33S
Alma           FAIR      65  63  93 SE3       30.33F FOG
Waycross       FAIR      63  60  90 SE3       30.33F FOG
Jesup          FOG       63  59  88 CALM      30.35S VSB 3/4
Baxley         FAIR      61  61 100 CALM      30.34S FOG
Brunswick      FAIR      61  59  94 CALM      30.35F FOG
Saint Simons   FAIR      65  63  93 SE6       30.34S

$$

SCZ027-028-034-036>038-045-046-048>050-GAZ119-141-200800-
...Lake and Supplemental Coastal Observations...

STATION/POSITION TIME  TEMP    WIND        PRES    WAVE   SWELL
                       AIR SEA DIR/SP/G            HT/PER HT/PER/DIR
                 (UTC) (F)     (DEG/KT/KT) (MB)    (FT/S) (FT/S/D)
Winyah Bay       0645   59      70/  1     1030.0S
Lake Murray      0720   60      70/  4/  5 1028.4S
ACE Basin NERRS  0645   62        CALM     1029.0S
Fort Pulaski     0700   65 59  130/  3/  4 1028.5
Sapelo Island    0700   68     130/  5     1028.0

$$

ANZ835-935-AMZ111-154-330-350-352-354-370-450-454-472-200800-
...C-MAN and Buoy Observations...

STATION/POSITION TIME  TEMP    WIND        PRES    WAVE   SWELL
                       AIR SEA DIR/SP/G            HT/PER HT/PER/DIR
                 (UTC) (F)     (DEG/KT/KT) (MB)    (FT/S) (FT/S/D)
Buoy 41004       0710   71     150/  8/  8 1028.9
Buoy 41008       0650   62 57   90/  6/  6 1027.5R   3/10   3/ 70/10
Folly Beach CMAN 0700   60      20/  5/  6 1029.6R
Capers Nearshore 0708   56 58   50/  2/  4 1029.0R
Fripp Nearshore  0608   58 58  100/ 12     1027.8


STATION/POSITION TIME  TEMP    WIND        PRES    WAVE   SWELL
                       AIR SEA DIR/SP/G            HT/PER HT/PER/DIR
                 (UTC) (F)     (DEG/KT/KT) (MB)    (FT/S) (FT/S/D)
5E St. Marys GA  0700      62                N/A     3/ 6
Frying Pan Buoy  0710   70 68  140/  4/  6 1030.0
Buoy 41025       0710   72     170/ 17/ 21 1031.6
Cape Lookout NC  0700          170/  7/  8 1031.1F
Buoy 41002       0650   72 74  120/ 14/ 16 1031.1R   4/ 6   3/ 80/ 8
Buoy 41010       NOT AVBL
St Augustine FL  0700   66 63  110/  9/  9 1027.0S


$$




USA.gov is the U.S. government's official web portal to all federal, state and local government web resources and services.